Regional Weather Roundup
Issued by NWS Cleveland, OH

Home | Current Version | Previous Version | Graphics & Text | Print | Product List | Glossary On
Versions: 1 2 3 4 5 6 7 8 9 10 11 12 13 14 15 16 17 18 19 20 21 22 23 24 25 26 27 28 29 30 31 32 33 34 35 36 37 38 39 40 41 42 43 44 45 46 47 48 49 50
000
ASUS41 KCLE 200412
RWRCLE
OHIO REGIONAL WEATHER ROUNDUP
NATIONAL WEATHER SERVICE WILMINGTON, OH
1100 PM EST SUN FEB 19 2017

NOTE: "FAIR" INDICATES FEW OR NO CLOUDS BELOW 12,000 FEET WITH NO
SIGNIFICANT WEATHER AND/OR OBSTRUCTIONS TO VISIBILITY.

OHZ001>008-015>018-024>027-034-035-043-044-200500-
   NORTHWEST OHIO

CITY           SKY/WX    TMP DP  RH WIND       PRES   REMARKS
DEFIANCE       FAIR      40  31  70 CALM      30.14R
FINDLAY        FAIR      43  32  65 SW3       30.13R
TOLEDO EXPRESS FAIR      42  32  67 CALM      30.14R
TOLEDO EXEC    FAIR      43  31  62 NE7       30.15R
LIMA           FAIR      44  35  70 S8        30.14R
$$

OHZ009>014-019>023-028>033-038-089-200500-
   NORTHEAST OHIO

CITY           SKY/WX    TMP DP  RH WIND       PRES   REMARKS
CLE-HOPKINS    FAIR      43  32  65 NE3       30.17R
CLE-LAKEFRONT  FAIR      39  34  82 NE6       30.14R
CUY CO. ARPT   CLEAR     41  34  75 CALM      30.15R
LORAIN-ELYRIA  FAIR      42  33  70 NE3       30.14R
ASHTABULA      FAIR      36  32  85 CALM      30.16R
AKRON-CANTON   FAIR      44  33  65 S3        30.14R
WOOSTER        FAIR      39  33  79 CALM      30.14S
MANSFIELD      FAIR      43  33  68 S6        30.14R
YOUNGSTOWN     FAIR      41  31  67 NE5       30.15R
$$

OHZ042-051>053-060>062-070>072-077>081-200500-
  SOUTHWEST OHIO

CITY           SKY/WX    TMP DP  RH WIND       PRES   REMARKS
CINC-COVINGTON FAIR      42  41  96 S3        30.16S FOG
CINC-LUNKEN    FOG       38  38 100 CALM      30.18S VSB 1/4
HAMILTON       FAIR      35  34  96 CALM      30.18R FOG
DAYTON         FAIR      47  43  86 S7        30.16R
WRIGHT-PAT AFB PTCLDY    39  39 100 CALM      30.16R FOG
DAYTON GENERAL FAIR      45  43  93 S5        30.15R FOG
WILMINGTON     FOG       40  40 100 SW5       30.16R VSB 1/4
$$

OHZ036-037-039>041-045>050-054>059-063>069-073>076-082>088-200500-
  CENTRAL AND SOUTHEAST OHIO

CITY           SKY/WX    TMP DP  RH WIND       PRES   REMARKS
COLUMBUS       FAIR      46  42  86 CALM      30.16R FOG
OSU AIRPORT    FAIR      43  42  97 CALM      30.15R FOG
BOLTON FIELD     N/A     42  42  98 SW3       30.16S
RICKENBACK AFB   N/A     42  42 100 CALM      30.16R FOG
NEWARK         FOG       36  35  96 CALM      30.15R VSB 1/4
MARION         FAIR      37  35  92 S6        30.15R
LANCASTER      FAIR      39  37  92 CALM      30.17R FOG
ZANESVILLE     FOG       41  39  93 CALM      30.16S VSB 1/2
NEW PHILLY     FAIR      41  39  93 SE3       30.16S
$$



USA.gov is the U.S. government's official web portal to all federal, state and local government web resources and services.